Location: Cahoon Acres
(40.8736°N, 111.8994°W)
Time: 09:14:30
(UTC+00:00)

SR - Pass Details

Date: 10 June 2020
Orbit: 583 x 872 km, 66.7° (Epoch: 03 July)

Event Time Altitude Azimuth Distance (km) Brightness Sun altitude
Rises 05:46:15 0° 320° (NW) 2,838 ? -21.9°
Reaches altitude 10° 05:48:42 10° 310° (NW) 1,916 ? -22.1°
Maximum altitude 05:52:27 31° 248° (WSW) 1,043 ? -22.4°
Enters shadow 05:52:50 30° 238° (WSW) 1,055 ? -22.4°
Drops below altitude 10° 05:56:10 10° 186° (S) 1,904 - -22.7°
Sets 05:58:36 0° 176° (S) 2,818 - -22.8°
